This is the latest recevied weather packets stored in our database for station/object KK7RJD. If no packets are shown the sender has not sent any weather packets the latest 1 day(s).
| Time | Temp. | Humidity | Pressure | Rain* | Wind** | Luminosity | Snow |
|---|---|---|---|---|---|---|---|
| 1778046179 | 0.56° C | 68% | 1019 hPa | 0 mm | - | 0 W/m² | - |
| 1778045875 | 0.56° C | 67% | 1018.9 hPa | 0 mm | - | 0 W/m² | - |
| 1778045272 | 1.11° C | 66% | 1018.7 hPa | 0 mm | - | 0 W/m² | - |
| 1778044667 | 1.11° C | 66% | 1018.6 hPa | 0 mm | - | 0 W/m² | - |
| 1778043455 | 1.67° C | 68% | 1018.6 hPa | 0 mm | - | 0 W/m² | - |
| 1778043152 | 1.67° C | 68% | 1018.6 hPa | 0 mm | - | 0 W/m² | - |
| 1778042244 | 1.67° C | 69% | 1018.5 hPa | 0 mm | - | 0 W/m² | - |
| 1778041941 | 1.67° C | 68% | 1018.6 hPa | 0 mm | - | 0 W/m² | - |
| 1778041640 | 1.67° C | 69% | 1018.7 hPa | 0 mm | - | 0 W/m² | - |
| 1778041338 | 1.67° C | 69% | 1018.6 hPa | 0 mm | - | 0 W/m² | - |
| 1778041036 | 1.67° C | 69% | 1018.6 hPa | 0 mm | - | 0 W/m² | - |
| 1778040733 | 1.67° C | 69% | 1018.7 hPa | 0 mm | - | 0 W/m² | - |
| 1778040127 | 1.67° C | 69% | 1018.6 hPa | 0 mm | - | 0 W/m² | - |
| 1778039824 | 1.67° C | 70% | 1018.6 hPa | 0 mm | - | 0 W/m² | - |
| 1778039521 | 1.67° C | 69% | 1018.4 hPa | 0 mm | - | 0 W/m² | - |
| 1778039217 | 1.67° C | 69% | 1018.4 hPa | 0 mm | - | 0 W/m² | - |
| 1778038915 | 1.67° C | 69% | 1018.4 hPa | 0 mm | - | 0 W/m² | - |
| 1778038612 | 1.67° C | 69% | 1018.3 hPa | 0 mm | - | 0 W/m² | - |
| 1778038309 | 2.22° C | 68% | 1018.4 hPa | 0 mm | - | 0 W/m² | - |
| 1778038006 | 2.22° C | 65% | 1018.3 hPa | 0 mm | - | 0 W/m² | - |
| 1778037703 | 2.22° C | 63% | 1018.4 hPa | 0 mm | - | 0 W/m² | - |
| 1778037400 | 2.78° C | 62% | 1018.3 hPa | 0 mm | - | 0 W/m² | - |
| 1778037097 | 2.78° C | 60% | 1018.2 hPa | 0 mm | - | 0 W/m² | - |
| 1778036795 | 3.33° C | 59% | 1018.2 hPa | 0 mm | - | 0 W/m² | - |
| 1778036492 | 3.33° C | 56% | 1018.1 hPa | 0 mm | - | 0 W/m² | - |
* Rain latest hour (hover to see other rain measurements)
** Current wind speed in m/s (hover to see current wind gust speed)